www.pogodaiklimat.ru

Погода и климат >> Архив погоды >> Япония >> Цуяма


ПОГОДА в Цуяме

  • Прогноз погоды в Цуяме
  • Монитор погоды в Цуяме

АРХИВ ПОГОДЫ в Цуяме

Время (UTC), дата Ветер
(напр.,м/с)
 
Видим.   Явления Облачность Т
(С)
Тd
(С)
f
(%)
Тe
(С)
Тes
(С)
Комфортность P
(гПа)
Po
(гПа)
Тmin
(С)
Tmax
(С)
R
(мм)
R24
(мм)
S
(см)
16 18.06 В 1 9000 м дымка н/о +17.7 +16.6 93 +19 +19 1010.5 993.3
17 18.06 Ю 1 9000 м дымка н/о +17.6 +16.6 94 +19 +19 1010.1 992.9
18 18.06 В 2 7000 м дымка н/о +16.8 +16.3 97 +17 +17 1009.5 992.2
19 18.06 З 1 7000 м дымка н/о +16.8 +16.3 97 +18 +18 1009.5 992.2
20 18.06 З 1 5000 м дымка н/о +16.6 +16.3 98 +17 +17 1009.9 992.6
21 18.06 ЮЗ 1 6000 м дымка н/о +16.9 +16.6 98 +18 +18 1009.7 992.4
22 18.06 ЮЗ 1 6000 м дымка н/о +18.2 +16.5 90 +20 +20 1009.7 992.5
23 18.06 В 1 13 км н/о +19.6 +16.5 82 +23 +23 комфорт 1009.1 992.0
00 19.06 ЮВ 2 14 км н/о +21.4 +15.9 71 +25 +25 комфорт 1008.4 991.4 +16.4
01 19.06 В 2 18 км н/о +23.6 +15.9 62 +27 +27 жарко 1007.8 991.0
02 19.06 В 1 20 км н/о +24.6 +16.1 59 +28 +28 душно 1007.3 990.6
03 19.06 ЮЗ 2 19 км в посл. час дождь н/о +25.9 +15.6 53 +29 +29 душно 1006.2 989.6
04 19.06 ЮВ 2 20 км н/о +28.2 +17.7 53 +33 +33 очень
душно
1005.3 988.8
05 19.06 ЮВ 2 20 км н/о +27.8 +17.7 54 +32 +32 душно 1004.5 988.0
06 19.06 Ю 2 19 км {дождь} н/о +27.8 +17.7 54 +32 +32 душно 1004.1 987.6 0.0
07 19.06 Ю 3 16 км н/о +27.8 +18.2 56 +33 +33 очень
душно
1003.8 987.3
08 19.06 С 1 18 км н/о +24.8 +19.0 70 +30 +30 душно 1004.1 987.4
09 19.06 СЗ 1 13 км в посл. час дождь н/о +23.1 +19.9 82 +30 +30 очень
душно
1004.6 987.8
10 19.06 С 1 13 км н/о +22.6 +19.4 82 +29 +29 очень
душно
1004.9 988.1
11 19.06 СВ 1 11 км н/о +21.6 +19.4 87 +27 +27 душно 1005.3 988.4
12 19.06 С 2 7000 м дымка {дождь} н/о +20.7 +19.5 93 +26 +26 душно 1005.7 988.7 +28.7 0.0
13 19.06 ЮВ 1 8000 м дымка н/о +20.5 +19.2 92 +26 +26 душно 1006.0 989.0
14 19.06 СЗ 2 9000 м дымка н/о +20.2 +18.9 92 +25 +25 комфорт 1005.9 988.9
15 19.06 СВ 1 8000 м дымка н/о +19.9 +18.7 93 +24 +24 комфорт 1006.0 989.0
16 19.06 В 1 9000 м дымка н/о +19.7 +18.2 91 +23 +23 комфорт 1005.7 988.7
17 19.06 ЮЗ 1 8000 м дымка н/о +19.4 +18.2 93 +23 +23 комфорт 1005.6 988.5
18 19.06 З 1 8000 м дымка н/о +18.8 +17.8 94 +21 +21 комфорт 1005.7 988.6
19 19.06 СЗ 2 6000 м дымка н/о +18.1 +17.5 96 +19 +19 1005.9 988.8
20 19.06 З 1 7000 м дымка н/о +18.4 +17.6 95 +21 +21 комфорт 1006.3 989.2
21 19.06 СЗ 1 6000 м дымка н/о +18.5 +17.7 95 +20 +20 1006.7 989.6
22 19.06 СЗ 1 7000 м дымка н/о +19.6 +17.4 87 +23 +23 комфорт 1006.9 989.8
23 19.06 ЮЗ 1 11 км н/о +21.8 +18.4 81 +27 +27 душно 1006.7 989.8
00 20.06 СЗ 1 13 км н/о +23.7 +18.4 72 +28 +28 душно 1006.4 989.6 +17.8
01 20.06 С 1 15 км н/о +25.9 +17.0 58 +30 +30 душно 1006.1 989.5
02 20.06 ЮВ 2 18 км н/о +27.2 +18.0 57 +32 +32 очень
душно
1005.8 989.2
03 20.06 В 2 20 км н/о +28.7 +16.9 49 +32 +32 душно 1005.5 989.0
04 20.06 ЮЗ 1 20 км н/о +28.7 +15.6 45 +32 +32 душно 1005.0 988.5
05 20.06 ЮЗ 2 20 км н/о +29.7 +13.9 38 +31 +31 жарко 1004.5 988.1
06 20.06 З 2 20 км н/о +28.7 +14.9 43 +31 +31 жарко 1004.4 987.9
07 20.06 ЮВ 1 20 км н/о +30.2 +13.9 37 +32 +32 жарко 1003.9 987.5
08 20.06 В 2 20 км н/о +29.5 +17.4 48 +34 +34 очень
душно
1004.2 987.8
09 20.06 Ю 3 19 км н/о +28.9 +17.4 50 +33 +33 очень
душно
1004.6 988.2
10 20.06 СВ 2 18 км н/о +27.2 +18.0 57 +32 +32 очень
душно
1005.5 988.9
11 20.06 СВ 1 19 км н/о +25.7 +17.9 62 +30 +30 душно 1006.3 989.6
12 20.06 С 2 18 км н/о +24.3 +17.3 65 +28 +28 душно 1007.2 990.4 +30.8
13 20.06 Ю 2 16 км н/о +23.3 +17.8 71 +29 +29 душно 1007.9 991.1
15 20.06 ЮЗ 1 14 км н/о +21.6 +17.8 79 +26 +26 душно 1007.7 990.8
16 20.06 З 1 12 км н/о +20.9 +17.9 83 +26 +26 душно 1007.5 990.5
17 20.06 В 1 11 км н/о +19.9 +17.7 87 +24 +24 комфорт 1007.4 990.3
18 20.06 ЮВ 1 10 км н/о +19.6 +17.9 90 +23 +23 комфорт 1007.8 990.7
19 20.06 ЮЗ 2 9000 м дымка н/о +19.6 +18.3 92 +23 +23 комфорт 1008.1 991.0
20 20.06 СЗ 1 8000 м дымка н/о +19.3 +18.1 93 +22 +22 комфорт 1008.2 991.1
21 20.06 В 1 7000 м дымка н/о +19.0 +18.0 94 +22 +22 комфорт 1008.2 991.1
22 20.06 Ю 1 7000 м дымка н/о +20.0 +18.3 90 +25 +25 комфорт 1008.1 991.0
23 20.06 СЗ 1 9000 м дымка н/о +21.9 +18.3 80 +27 +27 душно 1008.0 991.1
00 21.06 ЮВ 1 9000 м дымка н/о +23.3 +18.8 76 +30 +30 очень
душно
1007.5 990.7 +19.0
01 21.06 В 2 9000 м дым н/о +25.4 +19.5 70 +31 +31 очень
душно
1007.4 990.7
02 21.06 В 1 10 км н/о +26.4 +19.6 66 +32 +32 очень
душно
1006.9 990.3
03 21.06 ЮВ 2 10 км н/о +28.2 +20.8 64 +35 +35 очень
душно
1006.2 989.7
04 21.06 ЮВ 3 10 км н/о +28.4 +20.7 63 +35 +35 очень
душно
1005.6 989.1
05 21.06 ЮВ 3 10 км н/о +26.5 +19.9 67 +32 +32 очень
душно
1005.3 988.7
06 21.06 Ю 3 8000 м дым н/о +26.3 +20.2 69 +32 +32 очень
душно
1005.1 988.5
07 21.06 ЮВ 3 10 км в посл. час дождь н/о +26.1 +20.4 71 +32 +32 очень
душно
1004.9 988.3
08 21.06 ЮВ 5 8000 м слаб. дождь н/о +25.3 +20.3 74 +31 +31 очень
душно
1004.8 988.1
09 21.06 СЗ 4 1900 м дождь н/о +21.0 +20.3 96 +26 +26 душно 1006.2 989.2
10 21.06 СЗ 2 2900 м слаб. дождь н/о +19.6 +19.1 97 +23 +23 комфорт 1006.9 989.8
11 21.06 ЮЗ 4 3600 м слаб. дождь н/о +20.1 +18.9 93 +24 +24 комфорт 1007.5 990.5
12 21.06 З 2 3700 м в посл. час дождь н/о +19.4 +19.3 99 +23 +23 комфорт 1007.8 990.7 +29.0 14
13 21.06 В 1 2600 м в посл. час дождь н/о +19.4 +19.4 100 +23 +23 комфорт 1007.4 990.3
15 21.06 штиль 0 4500 м дымка {дождь} н/о +19.6 +19.5 99 +22 +22 комфорт 1006.6 989.5
16 21.06 З 1 3800 м дымка н/о +19.7 +19.6 99 +24 +24 комфорт 1006.2 989.2
17 21.06 З 1 1900 м дымка н/о +19.3 +19.3 100 +23 +23 комфорт 1005.4 988.3
18 21.06 З 1 1000 м дымка {дождь} н/о +19.3 +19.3 100 +23 +23 комфорт 1005.6 988.5 4
19 21.06 З 2 1300 м в посл. час туман н/о +19.0 +19.0 100 +22 +22 комфорт 1005.4 988.3
20 21.06 З 1 900 м туман н/о +18.7 +18.7 100 +22 +22 комфорт 1005.4 988.3
21 21.06 З 2 2300 м в посл. час туман н/о +18.5 +18.5 100 +20 +20 1005.3 988.2
22 21.06 Ю 1 6000 м дымка н/о +19.4 +18.8 96 +23 +23 комфорт 1005.1 988.1
23 21.06 ЮЗ 1 12 км н/о +21.0 +18.8 87 +27 +27 душно 1005.1 988.2
00 22.06 Ю 1 19 км {туман} н/о +22.7 +19.1 80 +29 +29 очень
душно
1004.6 987.8 +18.5 4
01 22.06 ЮЗ 2 17 км н/о +24.5 +19.1 72 +29 +29 душно 1004.4 987.7
02 22.06 СЗ 2 20 км н/о +25.0 +18.0 65 +29 +29 душно 1003.9 987.2
03 22.06 З 2 20 км н/о +26.5 +18.1 60 +31 +31 душно 1003.2 986.6
04 22.06 З 2 17 км н/о +27.0 +19.6 64 +33 +33 очень
душно
1002.6 986.1
05 22.06 СВ 3 17 км в посл. час дождь н/о +26.2 +19.1 65 +31 +31 очень
душно
1002.6 986.0
06 22.06 СЗ 3 13 км {дождь} н/о +26.0 +19.2 66 +31 +31 очень
душно
1002.4 985.8 0.0
07 22.06 СЗ 2 20 км н/о +25.2 +18.4 66 +30 +30 душно 1002.8 986.2
08 22.06 СЗ 3 20 км н/о +24.6 +18.3 68 +29 +29 душно 1003.3 986.6
09 22.06 СЗ 2 20 км н/о +23.3 +18.0 72 +29 +29 душно 1004.0 987.2
10 22.06 СЗ 3 20 км н/о +21.7 +17.3 76 +26 +26 душно 1004.6 987.7
11 22.06 СЗ 2 20 км н/о +20.4 +16.8 80 +24 +24 комфорт 1005.1 988.1
12 22.06 З 2 20 км н/о +19.4 +16.5 83 +22 +22 комфорт 1005.4 988.3 +28.3 0.0
13 22.06 СЗ 2 20 км н/о +19.0 +15.9 82 +21 +21 комфорт 1005.8 988.7
14 22.06 СЗ 2 20 км н/о +19.0 +16.1 83 +21 +21 комфорт 1005.9 988.8
15 22.06 З 1 20 км н/о +18.9 +15.6 81 +21 +21 комфорт 1005.7 988.6
16 22.06 З 2 20 км н/о +18.2 +15.3 83 +19 +19 1005.3 988.2
17 22.06 З 2 20 км н/о +17.9 +15.7 87 +19 +19 1005.3 988.2
18 22.06 З 2 20 км н/о +17.7 +15.3 86 +18 +18 1005.2 988.0
19 22.06 З 2 20 км н/о +17.4 +15.6 89 +18 +18 1005.1 987.9
20 22.06 З 2 20 км н/о +17.6 +15.1 85 +18 +18 1005.7 988.5
21 22.06 З 1 20 км н/о +17.9 +15.5 86 +19 +19 1005.7 988.5
22 22.06 З 2 20 км н/о +18.6 +15.7 83 +20 +20 1006.0 988.9
23 22.06 З 2 20 км н/о +20.7 +15.5 72 +25 +25 комфорт 1006.0 989.0
00 23.06 Ю 1 20 км н/о +22.4 +16.2 68 +27 +27 душно 1005.5 988.6 +17.0
01 23.06 З 2 20 км н/о +22.8 +15.9 65 +27 +27 душно 1005.2 988.4
02 23.06 С 1 20 км н/о +22.8 +16.4 67 +27 +27 душно 1005.2 988.4
03 23.06 СЗ 2 20 км н/о +23.9 +16.2 62 +27 +27 жарко 1004.8 988.1
04 23.06 С 2 20 км н/о +23.7 +16.0 62 +27 +27 жарко 1004.5 987.7
05 23.06 С 2 20 км н/о +23.9 +15.7 60 +27 +27 жарко 1004.4 987.7
06 23.06 С 3 20 км н/о +24.4 +15.9 59 +28 +28 душно 1004.4 987.7
07 23.06 С 3 20 км н/о +23.3 +16.4 65 +28 +28 душно 1005.2 988.4
08 23.06 СЗ 3 20 км н/о +22.7 +15.8 65 +27 +27 душно 1005.4 988.6
09 23.06 СЗ 2 20 км н/о +22.5 +15.6 65 +26 +26 жарко 1006.0 989.1
10 23.06 СЗ 2 20 км н/о +21.5 +15.4 68 +25 +25 комфорт 1006.3 989.4
11 23.06 СЗ 2 20 км н/о +20.5 +14.9 70 +24 +24 комфорт 1007.2 990.2
12 23.06 СЗ 2 20 км н/о +20.1 +14.7 71 +23 +23 комфорт 1007.7 990.7 +25.3
13 23.06 СЗ 1 20 км н/о +19.5 +14.5 73 +22 +22 комфорт 1008.1 991.0
14 23.06 С 1 20 км н/о +19.3 +14.8 75 +22 +22 комфорт 1008.2 991.1
15 23.06 СЗ 2 20 км н/о +18.8 +14.5 76 +21 +21 комфорт 1007.7 990.6
16 23.06 СЗ 2 20 км н/о +17.7 +14.6 82 +18 +18 1007.5 990.3
17 23.06 З 2 20 км н/о +16.8 +14.8 88 +17 +17 1007.6 990.3
18 23.06 З 2 20 км н/о +16.8 +14.3 85 +17 +17 1007.9 990.6
19 23.06 З 2 20 км н/о +16.2 +14.4 89 +16 +16 1008.5 991.2
20 23.06 СЗ 2 20 км н/о +15.4 +14.1 92 +15 +15 1008.9 991.5
21 23.06 З 3 20 км н/о +16.3 +14.7 90 +16 +16 1009.4 992.1
22 23.06 З 2 20 км н/о +18.6 +14.9 79 +20 +20 1010.1 992.9
23 23.06 З 2 20 км н/о +20.9 +14.3 66 +25 +25 комфорт 1010.6 993.6
00 24.06 З 2 20 км н/о +21.8 +15.2 66 +25 +25 комфорт 1010.7 993.7 +15.4
01 24.06 СЗ 3 20 км в посл. час дождь н/о +22.3 +16.4 69 +27 +27 душно 1011.1 994.1
02 24.06 З 2 20 км н/о +23.8 +13.7 53 +26 +26 жарко 1010.8 993.9
03 24.06 СЗ 2 20 км слаб. дождь н/о +24.2 +15.7 59 +27 +27 жарко 1010.4 993.6
04 24.06 С 2 20 км в посл. час дождь н/о +24.4 +14.8 55 +27 +27 жарко 1010.7 993.9
05 24.06 СЗ 3 20 км н/о +26.4 +15.5 51 +29 +29 жарко 1010.6 993.9
06 24.06 С 2 20 км {дождь} н/о +25.5 +16.6 58 +29 +29 душно 1010.7 994.0 0.0
07 24.06 С 2 20 км н/о +25.3 +15.9 56 +29 +29 душно 1010.9 994.1
08 24.06 С 2 20 км н/о +24.9 +15.3 55 +28 +28 жарко 1011.3 994.5
09 24.06 СЗ 2 20 км н/о +23.8 +14.8 57 +27 +27 жарко 1011.8 994.9
10 24.06 СЗ 2 20 км н/о +22.1 +14.7 63 +25 +25 комфорт 1013.0 996.0
11 24.06 СЗ 3 20 км н/о +20.7 +14.4 67 +24 +24 комфорт 1014.1 997.0
12 24.06 СЗ 1 20 км н/о +19.9 +14.5 71 +23 +23 комфорт 1014.8 997.6 +27.4 0.0
13 24.06 З 1 20 км н/о +18.3 +14.6 79 +20 +20 1015.5 998.2
14 24.06 З 2 20 км н/о +17.9 +15.2 84 +18 +18 1016.0 998.7
15 24.06 З 2 20 км н/о +17.3 +14.8 85 +18 +18 1015.9 998.5
16 24.06 З 1 20 км н/о +16.7 +15.1 90 +18 +18 1016.1 998.7
17 24.06 З 2 20 км н/о +15.9 +14.4 91 +16 +16 1016.3 998.8
19 24.06 ЮЗ 2 20 км н/о +14.9 +14.1 95 +15 +15 1016.6 999.1
20 24.06 З 2 20 км н/о +14.5 +13.7 95 +14 +14 1017.2 999.6
21 24.06 З 1 20 км н/о +15.6 +14.0 90 +17 +17 1017.2 999.7
22 24.06 ЮЗ 1 20 км н/о +17.4 +14.1 81 +19 +19 1017.1 999.7
23 24.06 ЮВ 2 20 км н/о +19.3 +14.8 75 +22 +22 комфорт 1017.1 999.8
00 25.06 В 2 20 км н/о +22.1 +15.2 65 +26 +26 душно 1016.6 999.5 +14.2
01 25.06 ЮВ 2 20 км н/о +24.2 +15.7 59 +27 +27 жарко 1016.1 999.2
02 25.06 В 2 20 км н/о +27.0 +16.9 54 +31 +31 душно 1015.9 999.2
03 25.06 В 2 20 км н/о +27.4 +16.4 51 +31 +31 душно 1015.6 998.9
04 25.06 ЮВ 3 20 км н/о +28.2 +16.5 49 +32 +32 душно 1015.2 998.5
05 25.06 ЮВ 3 20 км н/о +28.5 +15.4 45 +31 +31 душно 1014.6 998.0
06 25.06 ЮВ 3 20 км н/о +28.4 +15.0 44 +31 +31 душно 1014.1 997.5
07 25.06 ЮВ 2 20 км н/о +29.5 +14.9 41 +32 +32 душно 1014.0 997.4
08 25.06 ЮВ 3 20 км н/о +28.4 +13.9 41 +30 +30 жарко 1013.7 997.1
09 25.06 ЮВ 4 20 км н/о +27.5 +14.9 46 +30 +30 жарко 1014.0 997.3
10 25.06 ЮВ 3 20 км н/о +25.4 +14.2 50 +28 +28 жарко 1014.6 997.8
11 25.06 В 2 20 км н/о +24.6 +13.8 51 +27 +27 жарко 1015.4 998.5
12 25.06 В 1 20 км н/о +22.8 +14.6 60 +26 +26 жарко 1016.5 999.5 +30.1
13 25.06 С 1 20 км н/о +21.4 +15.5 69 +25 +25 комфорт 1016.9 999.8
14 25.06 штиль 0 20 км н/о +20.5 +15.9 75 +23 +23 комфорт 1017.2 1000.0
15 25.06 З 1 20 км н/о +19.6 +16.1 80 +23 +23 комфорт 1017.3 1000.1
16 25.06 СВ 1 19 км н/о +18.6 +15.9 84 +21 +21 комфорт 1017.1 999.8
17 25.06 З 2 18 км н/о +17.9 +15.7 87 +19 +19 1016.6 999.3

 

Местоположение метеостанции Цуяма (Япония): широта 35.07 долгота 134.01 высота над уровнем моря 147 м.

В архиве по умолчанию представлена погода в Цуяме за последнюю неделю. Архивные данные за месяц целиком и за предыдущие месяцы, начиная с января 2011 года, Вы можете получить, выбрав интересующий диапазон дат из раскрывающегося списка и нажав кнопку "Ввод!".


*Определитесь, кто Вы:
робот инопланетянин человек

Внимание! Время в таблицах - всемирное. Для получения местного времени необходимо прибавить поправку, которая равна 9 ч.

Смотрите также архив погоды в соседних городах и на ближайших метеорологических станциях:

Погода в Окаяме (Япония) (45 км)
Погода в Тоттори (Япония) (49 км)
Погода в Химедзи (Япония) (65 км)
Погода в Йонаго (Япония) (74 км)
Погода в Такамацу (Япония) (84 км)
Погода в Сакаи (Япония) (89 км)
Погода в Тоёоке (Япония) (89 км)
Погода в Тадоцу (Япония) (91 км)
Погода в Мацуэ (Япония) (96 км)
Погода в Фукуяме (Япония) (98 км)

Пояснения к столбцам:

Ветер - указаны скорость ветра в м/с - средняя за 10 мин, порывы в срок и между сроками (в фигурных скобках) и направление, откуда дует ветер: С - северный, СВ - северо-восточный, В - восточный, ЮВ - юго-восточный, Ю - южный, ЮЗ - юго-западный, З - западный, СЗ - северо-западный.
Видимость - горизонтальная дальность видимости в метрах или километрах. При видимости от 1 до 10 км при отсутствии осадков обычно наблюдается дымка, при ухудшении видимости до 1 км и менее - туман. В сухую погоду видимость может ухудшаться дымом, пылью или мглою.
Явления - указаны атмосферные явления, наблюдавшиеся в срок или в последний час перед сроком; фигурными скобками обозначены явления, наблюдавшиеся между сроками (за 1-3 часа до срока); квадратными скобками обозначены град или гололедные отложения с указанием их диаметра в мм.
Облачность - указаны через наклонную черту общая и нижняя облачность в баллах и высота нижней границы облаков в метрах; квадратными скобками обозначены формы облаков: Ci - перистые, Cs - перисто-слоистые, Cc - перисто-кучевые, Ac - высококучевые, As - высокослоистые, Sc - слоисто-кучевые, Ns - слоисто-дождевые, Cu - кучевые, Cb - кучево-дождевые. Подробнее классификацию облаков см. в Атласе облаков (PDF).
T - Температура воздуха - температура, измеренная на высоте 2 м над землей.
Td - Температура точки росы - температура, при понижении до которой содержащийся в воздухе водяной пар достигнет насыщения.
f - Относительная влажность воздуха - влажноcть воздуха, измеренная на высоте 2 м над землей.
Te - Эффективная температура - температура, которую ощущает одетый по сезону человек в тени. Характеристика душности погоды. При расчете учитывается влияние влажности воздуха и скорости ветра на теплоощущения человека.
Tes - Эффективная температура на солнце - температура, которую ощущает человек, с поправкой на солнечный нагрев. Характеристика знойности погоды. Зависит от высоты солнца над горизонтом, облачности и скорости ветра. Ночью, в пасмурную погоду, а также при ветре 12 м/с и более поправка равна нулю.
P - Атмосферное давление - приведенное к уровню моря атмосферное давление.
Po - Атмосферное давление - измеренное на уровне метеостанции атмосферное давление.
Tmin - Минимальная температура - минимум температуры воздуха на высоте 2 м над землей.
Tmax - Максимальная температура - максимум температуры воздуха на высоте 2 м над землей.
R - Количество осадков - Количество выпавших осадков за период времени, мм. При наведении курсора мыши на число - период времени, за который выпало указанное количество осадков.
R24 - Количество осадков - Количество выпавших осадков за 24 часа, мм.
S - Снежный покров - Высота снежного покрова, см. При наведении курсора мыши на число - состояние снежного покрова и степень покрытия местности в баллах.